Time,TemperatureF,DewpointF,PressureIn,WindDirection,WindDirectionDegrees,WindSpeedMPH,WindSpeedGustMPH,Humidity,HourlyPrecipIn,Conditions,Clouds,dailyrainin,SolarRadiationWatts/m^2,SoftwareType,DateUTC
2013-06-22 11:02:00,76.0,63.0,-100.00,East,91,3.0,7.0,64,0.00,,,0.00,605.000000,,2013-06-22 15:02:00,
2013-06-22 11:34:00,78.0,62.0,-100.00,East,79,3.0,7.0,58,0.00,,,0.00,731.000000,,2013-06-22 15:34:00,
2013-06-22 11:43:00,78.0,62.0,-100.00,East,79,3.0,7.0,58,0.00,,,0.00,731.000000,,2013-06-22 15:43:00,
2013-06-22 11:53:00,78.0,62.0,-100.00,East,79,3.0,7.0,58,0.00,,,0.00,731.000000,,2013-06-22 15:53:00,
2013-06-22 12:02:00,78.0,62.0,-100.00,East,79,3.0,7.0,58,0.00,,,0.00,731.000000,,2013-06-22 16:02:00,
2013-06-22 12:34:00,81.0,62.0,-100.00,ESE,117,3.0,6.0,53,0.00,,,-99.99,860.000000,,2013-06-22 16:34:00,
2013-06-22 12:43:00,81.0,62.0,-100.00,ESE,117,3.0,6.0,53,0.00,,,-99.99,860.000000,,2013-06-22 16:43:00,
2013-06-22 12:52:00,81.0,62.0,-100.00,ESE,117,3.0,6.0,53,0.00,,,-99.99,860.000000,,2013-06-22 16:52:00,
2013-06-22 13:02:00,81.0,62.0,-100.00,ESE,117,3.0,6.0,53,0.00,,,-99.99,860.000000,,2013-06-22 17:02:00,
2013-06-22 13:34:00,82.0,63.0,-100.00,SE,124,2.0,6.0,52,0.00,,,0.00,1019.000000,,2013-06-22 17:34:00,
2013-06-22 13:43:00,82.0,63.0,-100.00,SE,124,2.0,6.0,52,0.00,,,0.00,1019.000000,,2013-06-22 17:43:00,
2013-06-22 13:52:00,82.0,63.0,-100.00,SE,124,2.0,6.0,52,0.00,,,0.00,1019.000000,,2013-06-22 17:52:00,
2013-06-22 14:02:00,82.0,63.0,-100.00,SE,124,2.0,6.0,52,0.00,,,0.00,1019.000000,,2013-06-22 18:02:00,
2013-06-22 14:34:00,85.0,65.0,-100.00,ESE,118,3.0,6.0,51,0.00,,,0.00,1068.000000,,2013-06-22 18:34:00,
2013-06-22 14:43:00,85.0,65.0,-100.00,ESE,118,3.0,6.0,51,0.00,,,0.00,1068.000000,,2013-06-22 18:43:00,
2013-06-22 14:52:00,85.0,65.0,-100.00,ESE,118,3.0,6.0,51,0.00,,,0.00,1068.000000,,2013-06-22 18:52:00,
2013-06-22 15:01:00,85.0,65.0,-100.00,ESE,118,3.0,6.0,51,0.00,,,0.00,1068.000000,,2013-06-22 19:01:00,
2013-06-22 15:33:00,85.0,64.0,-100.00,ESE,108,3.0,4.0,49,0.00,,,0.00,1024.000000,,2013-06-22 19:33:00,
2013-06-22 15:43:00,85.0,64.0,-100.00,ESE,108,3.0,4.0,49,0.00,,,0.00,1024.000000,,2013-06-22 19:43:00,
2013-06-22 15:53:00,85.0,64.0,-100.00,ESE,108,3.0,4.0,49,0.00,,,0.00,1024.000000,,2013-06-22 19:53:00,
2013-06-22 16:02:00,85.0,64.0,-100.00,ESE,108,3.0,4.0,49,0.00,,,0.00,1024.000000,,2013-06-22 20:02:00,
2013-06-22 16:34:00,84.0,62.0,-100.00,SE,131,2.0,5.0,48,0.00,,,0.00,931.000000,,2013-06-22 20:34:00,
2013-06-22 16:43:00,84.0,62.0,-100.00,SE,131,2.0,5.0,48,0.00,,,0.00,931.000000,,2013-06-22 20:43:00,
2013-06-22 16:53:00,84.0,62.0,-100.00,SE,131,2.0,5.0,48,0.00,,,0.00,931.000000,,2013-06-22 20:53:00,
2013-06-22 17:01:00,84.0,62.0,-100.00,SE,131,2.0,5.0,48,0.00,,,0.00,931.000000,,2013-06-22 21:01:00,
2013-06-22 17:34:00,84.0,64.0,-100.00,SSE,149,2.0,5.0,51,0.00,,,0.00,779.000000,,2013-06-22 21:34:00,
2013-06-22 17:43:00,84.0,64.0,-100.00,SSE,149,2.0,5.0,51,0.00,,,0.00,779.000000,,2013-06-22 21:43:00,
2013-06-22 17:53:00,84.0,64.0,-100.00,SSE,149,2.0,5.0,51,0.00,,,0.00,779.000000,,2013-06-22 21:53:00,
2013-06-22 18:02:00,84.0,64.0,-100.00,SSE,149,2.0,5.0,51,0.00,,,0.00,779.000000,,2013-06-22 22:02:00,
2013-06-22 18:33:00,82.0,62.0,-100.00,SE,124,2.0,4.0,51,0.00,,,0.00,579.000000,,2013-06-22 22:33:00,
2013-06-22 18:43:00,82.0,62.0,-100.00,SE,124,2.0,4.0,51,0.00,,,0.00,579.000000,,2013-06-22 22:43:00,
2013-06-22 18:52:00,82.0,62.0,-100.00,SE,124,2.0,4.0,51,0.00,,,0.00,579.000000,,2013-06-22 22:52:00,
2013-06-22 19:01:00,82.0,62.0,-100.00,SE,124,2.0,4.0,51,0.00,,,0.00,579.000000,,2013-06-22 23:01:00,
2013-06-22 19:34:00,77.0,60.0,-100.00,SE,124,1.0,3.0,55,0.00,,,0.00,211.000000,,2013-06-22 23:34:00,
2013-06-22 19:43:00,77.0,60.0,-100.00,SE,124,1.0,3.0,55,0.00,,,0.00,211.000000,,2013-06-22 23:43:00,
2013-06-22 19:53:00,77.0,60.0,-100.00,SE,124,1.0,3.0,55,0.00,,,0.00,211.000000,,2013-06-22 23:53:00,
2013-06-22 20:01:00,77.0,60.0,-100.00,SE,124,1.0,3.0,55,0.00,,,0.00,211.000000,,2013-06-23 00:01:00,
2013-06-22 20:34:00,74.0,61.0,-100.00,NW,319,0.0,2.0,64,0.00,,,0.00,30.000000,,2013-06-23 00:34:00,
2013-06-22 20:42:00,74.0,61.0,-100.00,NW,319,0.0,2.0,64,0.00,,,0.00,30.000000,,2013-06-23 00:42:00,
2013-06-22 20:53:00,74.0,61.0,-100.00,NW,319,0.0,2.0,64,0.00,,,0.00,30.000000,,2013-06-23 00:53:00,
2013-06-22 21:01:00,74.0,61.0,-100.00,NW,319,0.0,2.0,64,0.00,,,0.00,30.000000,,2013-06-23 01:01:00,
2013-06-22 21:32:00,71.0,61.0,-100.00,NW,317,0.0,0.0,70,0.00,,,0.00,8.000000,,2013-06-23 01:32:00,
2013-06-22 21:42:00,71.0,61.0,-100.00,NW,317,0.0,0.0,70,0.00,,,0.00,8.000000,,2013-06-23 01:42:00,
2013-06-22 21:52:00,71.0,61.0,-100.00,NW,317,0.0,0.0,70,0.00,,,0.00,8.000000,,2013-06-23 01:52:00,
2013-06-22 22:01:00,71.0,61.0,-100.00,NW,317,0.0,0.0,70,0.00,,,0.00,8.000000,,2013-06-23 02:01:00,
2013-06-22 22:31:00,71.0,60.0,-100.00,NW,307,0.0,0.0,68,0.00,,,0.00,0.000000,,2013-06-23 02:31:00,
2013-06-22 22:41:00,71.0,60.0,-100.00,NW,307,0.0,0.0,68,0.00,,,0.00,0.000000,,2013-06-23 02:41:00,
2013-06-22 22:52:00,71.0,60.0,-100.00,NW,307,0.0,0.0,68,0.00,,,0.00,0.000000,,2013-06-23 02:52:00,
2013-06-22 23:01:00,71.0,60.0,-100.00,NW,307,0.0,0.0,68,0.00,,,0.00,0.000000,,2013-06-23 03:01:00,
2013-06-22 23:31:00,68.0,62.0,-100.00,NW,306,3.0,4.0,81,0.00,,,0.00,0.000000,,2013-06-23 03:31:00,
2013-06-22 23:41:00,68.0,62.0,-100.00,NW,306,3.0,4.0,81,0.00,,,0.00,0.000000,,2013-06-23 03:41:00,
2013-06-22 23:52:00,68.0,62.0,-100.00,NW,306,3.0,4.0,81,0.00,,,0.00,0.000000,,2013-06-23 03:52:00,